Location: Dover
(39.1580°N, 75.5250°W)
Time: 10:59:03
(UTC-05:00)

Daily predictions for brighter satellites

Satellite Brightness Start Highest point End
(mag) Time Altitude Azimuth Time Altitude Azimuth Time Altitude Azimuth
BREEZE-M R/B 3.5 17:17:45 10° SW 17:21:23 77° SE 17:32:28 10° ENE
NOSS 2-1 (C) 3.5 17:30:13 10° SW 17:33:52 68° NW 17:37:50 10° NNE
NOSS 2-1 (D) 3.6 17:30:54 10° SW 17:34:31 65° NW 17:38:29 10° NNE
Meteor 2-21 4.5 17:28:53 10° N 17:34:57 63° E 17:40:55 10° SSE
Cosmos 1943 Rocket 2.6 17:31:43 10° N 17:36:59 40° ENE 17:42:10 10° SE
Cosmos 1992 Rocket 4.0 17:32:49 10° S 17:37:59 72° ESE 17:43:11 10° NNE
SL-8 Rocket 4.4 17:35:33 10° N 17:41:20 40° ENE 17:47:07 10° SE
Cosmos 1315 Rocket 4.1 17:39:57 10° SE 17:42:53 20° E 17:45:48 10° NE
USA 161 4.3 17:43:04 10° NW 17:43:33 10° WNW 17:44:02 10° W
ALOS 2.9 17:41:05 10° SE 17:45:17 35° ENE 17:49:31 10° N
ERS-2 3.6 17:43:22 10° ESE 17:45:48 17° ENE 17:48:14 10° NNE
IRS-1A Rocket 4.2 17:45:54 10° SSE 17:51:21 70° ENE 17:56:57 10° N
BREEZE-M DEB (TANK) 2.5 17:46:12 10° SW 17:53:06 86° NW 17:55:34 13° NE
Cosmos 2221 2.5 17:50:22 10° N 17:54:43 66° E 17:59:04 10° SSE
BREEZE M DEB (TANK) 4.1 17:51:24 10° WSW 17:55:41 77° NNW 18:12:16 11° ENE
ATLAS 2AS CENTAUR R/B 2.9 17:47:45 10° NNW 17:55:44 82° ENE 18:03:00 10° SE
Cosmos 1908 4.1 17:53:29 10° NNW 17:57:17 54° W 18:01:02 10° S
Cosmos 968 Rocket 3.6 17:53:10 10° N 17:58:12 50° ENE 18:03:09 10° SE
Meteor 1-21 Rocket 4.3 17:52:57 10° S 17:58:49 87° E 18:04:47 10° N
FENGYUN 3A 3.8 17:53:45 10° SE 17:58:52 49° ENE 18:04:01 10° N
CZ-4 R/B 4.3 17:55:42 10° SSE 17:59:48 76° ENE 18:03:55 10° N
Tiangong 1 1.5 17:58:44 10° WNW 18:01:02 32° N 18:02:20 19° NE
Cosmos 1408 Rocket 4.4 17:59:01 10° SSE 18:02:41 28° E 18:06:23 10° NNE
Cosmos 1295 Rocket 4.5 17:58:15 10° N 18:04:23 89° ESE 18:10:32 10° S
COSMO-SKYMED 1 2.5 18:03:17 10° NNE 18:07:38 79° ESE 18:11:58 10° S
H-2A R/B 3.8 18:06:58 10° SE 18:10:03 24° ENE 18:13:10 10° NNE
MOS 1 4.2 18:08:14 10° SSE 18:13:50 72° ENE 18:19:27 10° N
Cosmos 1328 4.0 18:10:08 10° SSE 18:13:59 47° E 18:17:52 10° NNE
Cosmos 1400 Rocket 3.1 18:10:25 10° SSW 18:14:25 72° W 18:18:31 10° N
NOSS 3-4 (A) 4.3 18:11:32 10° NNW 18:18:02 38° NE 18:24:32 12° ESE
NOSS 3-4 (C) 4.3 18:11:39 10° NNW 18:18:07 38° NE 18:24:30 12° ESE
Cosmos 1943 4.1 18:15:14 10° SW 18:20:40 49° WNW 18:26:07 10° NNE
Cosmos 1726 3.1 18:17:26 10° NNW 18:21:00 48° W 18:24:31 10° S
MTI 4.0 18:18:39 10° N 18:21:51 72° WNW 18:25:02 10° SSW
Meteor 2-8 Rocket 4.4 18:15:53 10° S 18:21:57 68° E 18:28:05 10° NNE
Cosmos 2366 rocket 3.9 18:16:04 10° N 18:22:17 64° E 18:28:24 10° SSE
Cosmos 2058 4.3 18:20:09 10° SE 18:22:32 20° ESE 18:22:32 20° ESE
Cosmos 2151 4.4 18:22:24 10° SE 18:24:39 20° ESE 18:24:39 20° ESE
Cosmos 1076 Rocket 3.9 18:23:19 10° SSW 18:27:38 67° W 18:32:00 10° N
Cosmos 1743 Rocket 4.5 18:24:20 10° SE 18:27:51 26° E 18:27:51 26° E
Thor Agena Rocket 4.3 18:30:23 24° ENE 18:32:29 32° E 18:37:06 10° SSE
Cosmos 44 3.1 18:29:33 10° SSW 18:33:44 55° ESE 18:35:33 31° NE
EO 1 Del DPAF 3.4 18:32:39 10° N 18:36:30 75° WNW 18:40:18 10° SSW
Cosmos 1328 Rocket 3.9 18:33:07 10° N 18:37:15 39° ENE 18:41:19 10° SSE
Nadezhda 3 Rocket 4.3 18:31:33 10° SSE 18:37:23 42° E 18:43:17 10° NNE
Cosmos 1703 3.4 18:41:33 10° SSE 18:45:22 49° E 18:45:33 49° E
Cosmos 1766 Rocket 3.6 18:42:03 10° SSW 18:46:22 75° W 18:50:42 10° N
CZ-4 R/B 4.4 18:44:44 10° SW 18:47:47 19° W 18:50:51 10° NW
SPOT 3 Rocket 3.8 18:43:42 10° S 18:48:48 69° WSW 18:53:57 10° NNW
Cosmos 44 Rocket 3.0 18:50:04 10° SSW 18:54:43 73° ESE 18:55:59 47° NE
OAO 3 Rocket 3.6 18:54:01 10° WSW 18:58:35 52° S 18:59:43 42° SE
USA 81 4.0 18:55:38 10° SSE 19:00:47 57° E 19:02:38 37° NNE
Cosmos 2369 Rocket 4.4 18:56:59 10° NW 19:01:33 26° WSW 19:06:08 10° SSW
Cosmos 1626 2.8 19:00:28 10° SSW 19:04:05 53° W 19:05:54 26° NNW
GEOS 3 Rocket 3.5 19:06:07 38° SE 19:08:13 77° NE 19:13:37 10° NNW
Cosmos 1777 Rocket 3.9 19:05:40 10° NNW 19:10:56 87° WSW 19:16:11 10° SSE
Cosmos 332 Rocket 4.2 19:11:32 10° S 19:15:13 48° SSE 19:15:13 48° SSE
Cosmos 1656 Rocket 3.8 19:12:20 10° NNW 19:17:48 71° WSW 19:23:17 10° SSE
ERS-2 4.2 19:16:00 10° SSW 19:19:13 29° W 19:22:28 10° NW
Cosmos 1943 Rocket 4.2 19:15:54 10° NW 19:20:28 27° WSW 19:25:01 10° SSW
Meteor 1-27 4.5 19:19:41 10° NNW 19:25:21 69° W 19:31:04 10° S
Cosmos 2239 Rocket 4.3 19:20:00 10° N 19:32:40 - SSE 19:25:36 64° NE
Cosmos 1346 Rocket 3.8 19:23:03 10° NNW 19:30:19 11° SSW 19:30:30 10° SSW
Cosmos 2098 Rocket 4.1 19:23:14 10° NNW 19:28:17 63° W 19:34:34 10° S
COSMOS 2406 3.4 19:37:57 10° SSW 19:43:40 70° WNW 19:43:50 69° NW
